User: anonymous   Login
Location: Buisson
(44.2787°N, 4.9969°E)
Time: 23:36:10
(UTC+00:00)
Language:

Cosmos 2084 - Orbit

View from above orbital plane
View from above orbital plane
View from above satellite
View from above satellite

Ground track
Ground track

The orbit data is extracted from the following two-line orbital elements,

1 20663U 90055A   21172.57091068 -.00000009  00000-0  17441-4 0  9996
2 20663  62.7948  15.5875 0070744   7.5716 352.6428 14.92260009678435
Epoch (UTC): 21 June 2021 13:42:06
Eccentricity: 0.0070744
inclination: 62.7948°
perigee height: 541 km
apogee height: 640 km
right ascension of ascending node: 15.5875°
argument of perigee: 7.5716°
revolutions per day: 14.92260009
mean anomaly at epoch: 352.6428°
orbit number at epoch: 67843

The dashed part of the orbit path shows where the satellite is in the earth's shadow,  

DLR